Location: Heerstra�e
(52.5065°N, 13.2402°E)
Time: 09:31:53
(UTC+00:00)

Daily predictions for brighter satellites

Satellite Brightness Start Highest point End
(mag) Time Altitude Azimuth Time Altitude Azimuth Time Altitude Azimuth
Cosmos 1452 Rocket 3.5 19:57:04 10° SSW 20:02:21 80° ESE 20:07:41 10° NNE
BREEZE-M DEB 4.4 20:00:58 10° SSE 20:02:39 14° SE 20:05:09 10° E
Landsat 7 3.9 19:59:10 10° SSE 20:03:55 82° ENE 20:08:43 10° NNW
STARLINK-1224 3.7 20:00:15 10° SW 20:04:18 56° SSE 20:08:22 10° ENE
STARLINK-1208 3.7 20:02:46 10° W 20:06:55 86° NNW 20:11:06 10° E
STARLINK-1099 4.0 20:03:18 10° WNW 20:07:21 53° SSW 20:11:23 10° SE
Cosmos 1461 3.2 20:04:53 10° SSW 20:08:54 48° SE 20:13:10 10° NE
STARLINK-1225 3.7 20:05:12 10° SW 20:09:17 59° SSE 20:13:22 10° ENE
SAR-Lupe-2 3.8 20:06:16 10° NNE 20:09:49 51° ESE 20:13:19 10° S
Okean 3 4.3 20:06:50 10° SSW 20:11:04 57° WNW 20:15:21 10° N
STARLINK-1271 3.7 20:07:47 10° W 20:11:57 85° N 20:16:07 10° E
STARLINK-1104 4.0 20:08:17 10° WNW 20:12:18 50° SSW 20:16:19 10° SE
Cosmos 2369 Rocket 3.6 20:08:28 10° SE 20:12:22 19° E 20:16:15 10° ENE
STARLINK-1212 2.9 20:10:47 10° W 20:13:54 82° N 20:17:01 10° E
STARLINK-1230 3.6 20:10:09 10° WSW 20:14:14 62° SSE 20:18:21 10° ENE
STARLINK-1105 2.9 20:11:15 10° W 20:14:22 82° N 20:17:29 10° E
NOSS 2-2 (C) 4.2 20:12:08 10° S 20:15:11 26° ESE 20:18:32 10° ENE
STARLINK-1247 2.9 20:12:07 10° W 20:15:15 82° N 20:18:24 10° E
STARLINK-1227 2.9 20:12:37 10° W 20:15:44 82° N 20:18:52 10° E
CZ-4B DEB 4.4 20:12:27 10° SSE 20:15:46 73° ENE 20:19:07 10° N
STARLINK-1226 2.9 20:13:28 10° W 20:16:36 83° N 20:19:44 10° E
STARLINK-1154 3.7 20:12:45 10° W 20:16:56 84° N 20:21:06 10° E
STARLINK-1144 4.1 20:13:17 10° WNW 20:17:16 48° SSW 20:21:16 10° SE
STARLINK-1215 2.9 20:14:22 10° W 20:17:30 83° N 20:20:39 10° E
NOSS 3-2 (A) 4.1 20:11:47 10° NW 20:19:05 86° NE 20:27:24 10° SE
STARLINK-1243 3.6 20:15:07 10° WSW 20:19:14 65° SSE 20:23:20 10° ENE
STARLINK-1217 2.9 20:16:11 10° W 20:19:20 83° N 20:22:27 10° E
ATLAS 2AS CENTAUR R/B 4.3 20:14:28 10° SE 20:19:35 19° ESE 20:24:40 10° ENE
SPOT 5 3.3 20:14:49 10° SSE 20:20:02 66° ENE 20:25:22 10° N
STARLINK-1229 2.9 20:17:06 10° W 20:20:14 84° N 20:23:22 10° E
STARLINK-1270 2.9 20:18:00 10° W 20:21:08 84° N 20:24:16 10° E
OPS 6432 4.3 20:18:10 10° NW 20:21:12 89° SW 20:24:55 10° SE
STARLINK-1197 3.7 20:17:43 10° W 20:21:53 83° N 20:26:03 10° E
STARLINK-1103 4.1 20:18:15 10° W 20:22:13 45° SSW 20:26:11 10° SE
NOSS 8 (F) 4.1 20:19:15 10° SW 20:22:21 67° SE 20:25:25 10° NE
STARLINK-1189 2.9 20:19:47 10° W 20:22:55 84° N 20:26:03 10° E
STARLINK-1188 2.9 20:20:42 10° W 20:23:51 85° NNE 20:26:58 10° E
STARLINK-1236 3.6 20:20:03 10° WSW 20:24:10 68° SSE 20:28:18 10° ENE
STARLINK-1187 2.8 20:21:47 10° W 20:24:53 87° N 20:28:00 10° E
ERS-1 Rocket 3.0 20:20:11 10° SSE 20:25:13 80° ENE 20:30:18 10° NNW
STARLINK-1191 2.9 20:23:09 10° W 20:26:16 85° N 20:29:22 10° E
STARLINK-1198 3.7 20:22:42 10° W 20:26:52 83° N 20:31:02 10° E
STARLINK-1101 4.2 20:23:15 10° W 20:27:11 43° SSW 20:31:00 11° SE
STARLINK-1221 2.9 20:24:06 10° W 20:27:13 86° N 20:30:20 10° E
STARLINK-1222 2.9 20:24:57 10° W 20:28:04 86° N 20:31:11 10° E
STARLINK-1214 2.9 20:25:50 10° W 20:28:58 86° N 20:32:05 10° E
Okean 2 4.3 20:26:04 10° SSE 20:29:44 32° E 20:33:28 10° NNE
Cosmos 1066 Rocket 4.1 20:24:55 10° S 20:30:16 72° E 20:35:37 10° NNE
USA 238 DEB 3.9 20:23:50 10° NW 20:31:01 87° SW 20:38:25 10° SE
USA 238 3.9 20:23:56 10° NW 20:31:06 87° SW 20:38:32 10° SE
USA 245 3.7 20:28:58 10° S 20:31:38 33° WSW 20:33:56 10° NNW
STARLINK-1199 3.7 20:27:42 10° W 20:31:52 82° N 20:36:02 10° E
STARLINK-1102 4.3 20:28:15 10° W 20:32:09 40° SSW 20:35:48 11° SE
Cosmos 968 Rocket 4.3 20:27:37 10° NNW 20:32:31 41° NE 20:37:21 10° SE
Okean 1 Rocket 3.3 20:28:26 10° NNW 20:32:56 74° W 20:37:21 10° S
Cosmos 1805 3.3 20:29:18 10° N 20:33:15 74° ENE 20:37:07 10° SSE
Cosmos 1470 4.3 20:30:05 10° NNE 20:33:17 24° ENE 20:36:26 10° ESE
STARLINK-1228 3.1 20:29:54 10° W 20:33:24 85° SSW 20:36:55 10° ESE
STARLINK-1269 3.5 20:30:00 10° WSW 20:34:08 73° SSE 20:38:16 10° ENE
Resurs 01 Rocket 3.7 20:31:50 10° SSW 20:35:29 24° W 20:39:09 10° NW
Cosmos 2278 Rocket 3.4 20:30:01 10° WSW 20:35:29 47° NW 20:41:00 10° NNE
TSX-5 4.2 20:30:09 10° SSW 20:35:31 82° SE 20:39:41 10° NE
Nadezhda 4 Rocket 4.0 20:30:38 10° S 20:36:44 77° E 20:42:53 10° NNE
STARLINK-1235 2.9 20:33:31 10° W 20:36:46 85° SSW 20:40:01 10° ESE
STARLINK-1210 3.7 20:32:40 10° W 20:36:51 82° N 20:41:00 10° E
STARLINK-1111 4.4 20:33:14 10° W 20:37:05 38° SSW 20:40:34 12° SE
Cosmos 1455 Rocket 3.7 20:34:23 10° N 20:38:32 42° ENE 20:42:18 12° SE
STARLINK-1200 3.5 20:34:57 10° WSW 20:39:05 76° SSE 20:43:14 10° ENE
STARLINK-1219 3.7 20:37:39 10° W 20:41:49 82° N 20:45:59 10° E
STARLINK-1073 4.5 20:38:14 10° W 20:42:03 36° SSW 20:45:22 13° SSE
STARLINK-1192 3.5 20:39:56 10° WSW 20:44:04 78° SSE 20:48:14 10° ENE
ATLAS CENTAUR R/B 2.9 20:44:36 10° NW 20:46:07 20° N 20:47:40 10° NE
STARLINK-1211 3.7 20:42:39 10° W 20:46:50 82° N 20:50:59 10° E
Cosmos 371 Rocket 4.5 20:42:35 10° SW 20:47:16 47° WNW 20:52:01 10° NNE
SL-4 R/B 3.7 20:45:28 10° S 20:48:52 19° SE 20:52:18 10° E
Terra 1.8 20:44:22 11° SSE 20:48:53 82° ENE 20:53:41 10° NNW
STARLINK-1244 3.5 20:44:54 10° WSW 20:49:03 81° SSE 20:53:12 10° ENE
Cosmos 1110 Rocket 3.9 20:44:05 10° SSW 20:49:16 81° ESE 20:54:28 10° NNE
Abrixas rocket 4.1 20:49:00 10° WSW 20:50:40 14° SSW 20:51:50 12° S
SPOT 1/Viking Rocket 4.2 20:46:08 10° S 20:51:09 50° W 20:56:11 10° NNW
STARLINK-1245 3.7 20:47:37 10° W 20:51:48 82° N 20:55:57 10° E
Cosmos 1842 3.9 20:48:52 13° SSE 20:52:00 39° E 20:55:39 10° NNE
CARTOSAT-1 3.9 20:47:55 10° S 20:52:12 63° WSW 20:56:31 10° NNW
ERBS 3.5 20:50:08 10° W 20:53:21 45° NNW 20:56:34 10° ENE
NOSS 8 (H) 4.0 20:50:26 10° SW 20:53:31 82° SE 20:56:40 10° NE
STARLINK-1138 3.6 20:49:52 10° WSW 20:54:02 83° SSE 20:58:11 10° E
STARLINK-1234 2.9 20:51:17 10° W 20:54:34 73° SSW 20:57:43 11° ESE
STARLINK-1233 3.7 20:52:35 10° W 20:56:46 83° N 21:00:55 10° E
STARLINK-1143 3.6 20:54:50 10° WSW 20:58:59 85° SSE 21:03:09 10° E
STARLINK-1209 3.0 20:57:15 10° W 21:00:32 67° SSW 21:03:27 13° ESE
STARLINK-1204 3.7 20:57:35 10° W 21:01:45 83° N 21:05:55 10° E
STARLINK-1241 3.6 20:59:51 10° WSW 21:04:00 87° SSE 21:08:10 10° E
Cosmos 1331 Rocket 4.0 21:00:54 10° SSW 21:06:04 85° WNW 21:11:19 10° NNE
Cosmos 1733 3.3 21:02:32 10° NNW 21:06:21 72° W 21:09:32 14° S
STARLINK-1238 3.7 21:02:35 10° W 21:06:45 84° N 21:10:55 10° E
Aureole 2 Rocket 3.6 21:03:57 10° SW 21:06:50 37° WNW 21:09:35 10° N
STARLINK-1239 3.6 21:04:48 10° WSW 21:08:58 89° SSE 21:13:08 10° E
STARLINK-1201 3.6 21:07:33 10° W 21:11:44 85° N 21:15:54 10° E
COSMOS 2455 4.3 21:09:44 14° SE 21:12:44 20° ESE 21:16:55 10° ENE
STARLINK-1240 3.6 21:09:46 10° W 21:13:56 89° NNW 21:18:06 10° E
Cosmos 1486 Rocket 4.0 21:08:38 10° NNW 21:13:59 87° WSW 21:18:13 16° SSE
Cosmos 1378 3.6 21:10:19 10° SSW 21:13:59 58° WNW 21:17:41 10° N
Cosmos 1833 4.3 21:08:48 10° NNW 21:14:28 71° NE 21:19:13 15° SE
USA 215 3.5 21:08:43 10° ESE 21:15:16 76° NNE 21:21:49 10° WNW
Cosmos 1544 Rocket 3.6 21:11:03 10° N 21:15:24 70° ENE 21:18:39 17° SSE
Cosmos 1302 Rocket 4.0 21:10:55 10° SSW 21:16:10 68° ESE 21:21:27 10° NNE
Cosmos 2297 Rocket 4.4 21:12:21 10° NNW 21:16:28 20° NNE 21:20:35 10° ENE
MTI 3.6 21:13:28 10° NNE 21:16:38 72° ESE 21:18:58 16° S
Cosmos 1271 Rocket 3.7 21:14:22 17° SSE 21:16:43 33° E 21:20:17 10° NNE
STARLINK-1206 3.6 21:12:33 10° W 21:16:44 86° N 21:20:54 10° E
Cosmos 1242 Rocket 3.0 21:15:26 18° SSE 21:17:52 45° E 21:21:25 10° NNE
STARLINK-1203 3.7 21:14:35 10° W 21:18:49 88° N 21:23:03 10° E
STARLINK-1216 3.6 21:14:44 10° W 21:18:54 88° N 21:23:04 10° E
STARLINK-60 4.1 21:20:10 21° SSE 21:20:39 22° SE 21:23:13 10° E
STARLINK-1205 3.6 21:17:31 10° W 21:21:42 87° NNE 21:25:52 10° E
Cosmos 1092 Rocket 4.1 21:16:09 10° SSW 21:22:18 81° W 21:28:31 10° N
NOSS 2-2 (D) 3.2 21:19:45 10° SW 21:23:23 87° NW 21:27:39 10° NE
CENTAUR R/B 3.2 21:15:40 10° NW 21:23:32 78° SW 21:31:08 15° SE
STARLINK-1237 3.6 21:19:44 10° W 21:23:54 87° N 21:28:04 10° E
Lacrosse 4 Rocket 4.4 21:23:20 10° NNW 21:25:27 13° NNE 21:27:31 10° NE
STARLINK-1218 3.6 21:22:31 10° W 21:26:42 89° NNE 21:30:52 10° E
Cosmos 1707 3.6 21:24:35 19° SSE 21:26:48 35° E 21:30:23 10° NNE
ATLAS 3B R/B 2.9 21:20:10 10° NW 21:26:55 70° NE 21:33:52 10° SE
SL-27 R/B 3.1 21:23:39 10° NW 21:27:09 47° WSW 21:29:28 18° S
NOSS 3-2 (C) 4.2 21:21:25 10° NW 21:28:44 68° SW 21:35:36 16° SSE
STARLINK-1202 3.6 21:24:43 10° W 21:28:53 85° N 21:33:03 10° E
Cosmos 1726 3.1 21:27:04 10° N 21:30:32 35° ENE 21:32:50 18° SE
STARLINK-1254 3.6 21:27:30 10° W 21:31:40 90° SW 21:35:50 10° ESE
ALOS 2 3.8 21:30:24 13° ESE 21:33:42 33° ENE 21:37:38 10° N
Cosmos 1867 3.6 21:28:16 10° NW 21:33:47 88° SW 21:38:07 17° SE
COSMOS 2487 3.2 21:31:29 10° NNW 21:34:49 42° ENE 21:37:03 18° SE
STARLINK-1231 3.6 21:32:28 10° W 21:36:38 88° SSW 21:40:48 10° ESE
STARLINK-1246 3.7 21:34:42 10° W 21:38:52 84° N 21:43:02 10° E
Cosmos 1943 Rocket 2.2 21:33:55 10° SSW 21:39:29 85° WNW 21:45:09 10° NNE
Cosmos 1992 Rocket 4.4 21:36:08 18° S 21:39:46 46° ESE 21:44:44 10° NE
NOSS 2-2 (E) 4.0 21:37:07 10° WSW 21:40:46 57° NW 21:45:13 10° NE
NOSS 3-4 (A) 3.9 21:36:32 15° S 21:41:03 39° ESE 21:46:52 10° NE
NOSS 3-4 (C) 3.9 21:36:40 15° S 21:41:09 39° ESE 21:46:58 10° NE
STARLINK-1232 3.5 21:37:28 10° W 21:41:38 86° SSW 21:45:47 10° ESE
SeaSat 1 3.1 21:37:08 10° NE 21:41:41 36° ESE 21:44:35 19° SSE
EO 1 Del DPAF 3.6 21:38:43 10° NNE 21:42:24 47° E 21:44:29 23° SSE
STARLINK-1224 3.7 21:39:40 10° W 21:43:50 83° N 21:48:00 10° E
STARLINK-1208 3.5 21:42:25 10° W 21:46:36 84° SSW 21:50:45 10° ESE
STARLINK-1225 3.7 21:44:40 10° W 21:48:50 82° N 21:53:00 10° E
Cosmos 1975 Rocket 3.8 21:44:44 10° SSW 21:49:04 51° WNW 21:53:22 10° N
STARLINK-1212 3.2 21:46:39 10° W 21:49:38 44° SSW 21:50:47 29° SSE
STARLINK-1105 3.2 21:47:07 10° W 21:50:06 43° SSW 21:51:13 29° SSE
Meteor 2-10 3.9 21:45:11 10° N 21:50:16 78° ENE 21:53:43 21° SSE
STARLINK-1247 3.3 21:47:59 10° W 21:50:59 43° SSW 21:52:06 29° SSE
STARLINK-1227 3.3 21:48:29 10° W 21:51:28 43° SSW 21:52:33 29° SSE
STARLINK-1271 3.5 21:47:26 10° WNW 21:51:36 82° SSW 21:55:45 10° ESE
STARLINK-1226 3.3 21:49:21 10° W 21:52:19 42° SSW 21:53:24 30° SSE
BREEZE-M DEB (TANK) 3.3 21:40:53 10° WSW 21:52:27 59° S 21:55:52 10° E
Cosmos 292 Rocket 3.7 21:48:19 13° SSW 21:52:43 85° ESE 21:57:37 10° NNE
BREEZE-M DEB (TANK) 3.0 21:49:18 10° W 21:52:58 52° S 21:56:53 10° ESE
STARLINK-1215 3.3 21:50:14 10° W 21:53:13 42° SSW 21:54:16 30° SSE
S3M 4.0 21:47:22 10° N 21:53:34 86° E 21:58:11 19° S
STARLINK-1230 3.7 21:49:38 10° W 21:53:48 82° N 21:57:59 10° E
Cosmos 2227 Rocket 4.1 21:49:05 10° NNW 21:53:49 26° NE 21:58:33 10° E
RESURS DK-1 4.3 21:53:56 14° ESE 21:54:52 15° ESE 21:57:11 10° ENE
STARLINK-1217 3.3 21:52:04 10° W 21:55:01 41° SSW 21:56:01 30° SSE
Cosmos 2369 Rocket 2.2 21:49:58 10° SSW 21:55:40 87° WNW 22:01:22 10° NNE
STARLINK-1229 3.4 21:52:58 10° W 21:55:56 40° SSW 21:56:54 30° SSE
STARLINK-1154 3.5 21:52:25 10° WNW 21:56:35 79° SSW 22:00:43 10° ESE
STARLINK-1270 3.4 21:53:52 10° W 21:56:50 40° SSW 21:57:45 31° SSE
STARLINK-1189 3.4 21:55:40 10° W 21:58:37 39° SSW 21:59:29 31° SSE
STARLINK-1243 3.7 21:54:38 10° W 21:58:48 82° N 22:02:59 10° E
STARLINK-1188 3.4 21:56:35 10° W 21:59:32 39° SSW 22:00:21 31° S
Cosmos 1340 Rocket 2.9 21:56:04 10° N 22:00:09 73° ENE 22:02:31 24° SSE
STARLINK-1187 3.6 21:57:42 10° W 22:00:35 35° SSW 22:01:14 31° S
ATLAS CENTAUR R/B 2.1 21:59:35 23° SSE 22:01:27 34° ESE 22:05:12 10° ENE
STARLINK-1197 3.5 21:57:22 10° WNW 22:01:32 77° SSW 22:05:40 10° ESE
STARLINK-1191 3.5 21:59:02 10° W 22:01:57 37° SSW 22:02:39 32° S
Aureole 3 3.3 21:58:49 10° N 22:02:03 46° ENE 22:03:25 26° SE
STARLINK-1221 3.5 21:59:59 10° W 22:02:54 37° SSW 22:03:34 32° S
Thor Agena Rocket 3.6 21:57:50 10° NNE 22:03:11 80° ESE 22:07:11 18° SSW
STARLINK-1222 3.5 22:00:50 10° W 22:03:44 36° SSW 22:04:23 32° S
STARLINK-1236 3.7 21:59:36 10° W 22:03:47 82° N 22:07:57 10° E
STARLINK-1214 3.5 22:01:45 10° W 22:04:38 36° SSW 22:05:15 32° S
Cosmos 1908 4.0 22:01:34 10° N 22:05:13 41° ENE 22:07:21 21° SE
NOSS 2-2 (C) 4.4 22:01:54 10° WSW 22:05:28 46° NNW 22:09:47 10° NE
Cosmos 1025 Rocket 3.0 22:02:58 21° S 22:05:50 89° W 22:10:10 10° N
STARLINK-1198 3.5 22:02:21 10° WNW 22:06:30 74° SSW 22:10:32 11° ESE
EXPRESS MD2 4.3 22:02:25 10° WSW 22:06:40 69° S 22:15:42 10° E
Cosmos 1553 Rocket 4.3 22:00:48 10° NNW 22:07:00 61° W 22:11:43 17° S
Cosmos 1953 2.3 22:04:27 10° NNW 22:08:28 82° W 22:10:41 25° S
BREEZE M DEB (TANK) 2.0 22:06:01 10° WSW 22:08:33 41° S 22:08:33 41° S
ATLAS 2AS CENTAUR R/B 3.1 22:01:25 10° SSW 22:09:16 65° SE 22:17:05 10° NE
Cosmos 1656 Rocket 3.7 22:04:50 16° SSW 22:09:17 67° ESE 22:14:49 10° NE
BREEZE-M DEB (TANK) 4.4 21:57:57 10° WNW 22:09:27 40° SW 22:11:56 22° SSE
Cosmos 1470 3.8 22:05:52 10° NNW 22:09:28 36° W 22:11:51 18° SSW
STARLINK-1228 4.1 22:07:15 10° W 22:10:23 31° SSW 22:11:08 28° S
STARLINK-1199 3.5 22:07:21 10° WNW 22:11:30 72° SSW 22:15:21 12° ESE
STARLINK-1235 3.9 22:09:59 10° W 22:12:51 29° SSW 22:13:12 28° SSW
STARLINK-1269 3.7 22:09:35 10° W 22:13:45 83° N 22:17:55 10° E
APEX 4.2 22:07:32 10° SSW 22:13:54 87° NW 22:19:02 10° NNE
Cosmos 968 Rocket 4.4 22:09:34 10° NW 22:14:19 38° WSW 22:17:31 18° SSW
Cosmos 2292 Rocket 3.3 22:13:24 28° SSE 22:14:58 51° E 22:18:02 10° NNE
STARLINK-1210 3.5 22:12:19 10° WNW 22:16:27 69° SSW 22:20:07 13° ESE
STARLINK-1200 3.6 22:14:33 10° W 22:18:43 83° N 22:22:53 10° E
Cosmos 1777 Rocket 4.2 22:14:19 10° NNW 22:19:33 70° ENE 22:23:18 19° SE
Cosmos 1655 Rocket 4.0 22:15:01 18° S 22:19:49 88° W 22:26:09 10° N
SL-4 R/B 0.3 22:20:17 69° S 22:20:30 82° W 22:22:41 10° NNW
STARLINK-1219 3.5 22:17:17 10° WNW 22:21:24 66° SSW 22:24:53 14° ESE
ATLAS 5 CENTAUR R/B 1.4 22:21:46 23° SSW 22:23:28 44° SE 22:25:35 10° ENE
STARLINK-1192 3.6 22:19:33 10° W 22:23:43 84° N 22:27:53 10° E
Cosmos 2228 3.2 22:21:58 10° N 22:26:13 64° ENE 22:28:36 25° SSE
STARLINK-52 3.8 22:26:27 31° SE 22:26:27 31° SE 22:29:07 10° E
STARLINK-1211 3.6 22:22:17 10° WNW 22:26:24 63° SSW 22:29:40 15° ESE
Meteor 2-15 4.4 22:20:45 10° NNW 22:26:55 86° W 22:31:06 22° S
Cosmos 1726 Rocket 3.9 22:22:42 10° N 22:26:58 54° ENE 22:29:30 23° SE
Terra 4.1 22:24:20 10° SW 22:27:16 16° W 22:30:12 10° NW
SL-4 R/B 2.5 22:23:13 10° SW 22:27:55 53° SSE 22:32:37 10° E
STARLINK-1244 3.6 22:24:32 10° W 22:28:42 85° N 22:32:52 10° E
ERBS 3.8 22:26:57 10° WNW 22:30:06 38° N 22:33:15 10° ENE
STARLINK-1234 4.5 22:27:55 10° W 22:30:16 22° SW 22:30:16 22° SW
Cosmos 1300 4.2 22:27:49 10° N 22:31:11 29° ENE 22:33:33 16° ESE
STARLINK-1245 3.6 22:27:15 10° WNW 22:31:21 60° SSW 22:34:26 17° SE
Cosmos 921 Rocket 4.5 22:31:52 18° SE 22:33:36 24° E 22:37:06 10° NE
In-Cosmos 22 4.0 22:30:05 22° S 22:33:37 86° E 22:38:56 10° NNE
STARLINK-1138 3.6 22:29:32 10° W 22:33:41 86° N 22:37:51 10° E
STARLINK-1233 3.6 22:32:13 10° WNW 22:36:18 58° SSW 22:39:12 18° SE
Cosmos 2266 Rocket 3.9 22:33:43 20° S 22:38:04 87° W 22:44:10 10° N
STARLINK-1143 3.6 22:34:29 10° W 22:38:39 87° N 22:42:48 10° E
STARLINK-1204 3.7 22:37:12 10° WNW 22:41:16 55° SSW 22:43:59 20° SE
SJ 16-02 3.1 22:38:50 10° N 22:42:41 28° NE 22:46:31 10° ESE
STARLINK-1241 3.6 22:39:30 10° W 22:43:40 88° N 22:47:50 10° E
STARLINK-1238 3.7 22:42:13 10° WNW 22:46:16 52° SSW 22:48:47 21° SE
Meteor 2-15 Rocket 4.5 22:40:41 10° NNW 22:46:51 78° W 22:50:55 22° S
Helios 1B rocket 4.1 22:44:54 10° NE 22:48:14 23° E 22:50:09 17° SE
STARLINK-1239 3.6 22:44:28 10° W 22:48:38 90° NNE 22:52:48 10° E
Cosmos 1674 2.6 22:48:20 30° S 22:50:06 85° E 22:53:56 10° NNE
STARLINK-1201 3.8 22:47:12 10° WNW 22:51:13 49° SSW 22:53:33 22° SE
STARLINK-1240 3.5 22:49:26 10° W 22:53:36 89° S 22:57:45 10° ESE
STARLINK-1206 3.9 22:52:12 10° WNW 22:56:12 47° SSW 22:58:21 24° SE
STARLINK-60 2.7 22:53:14 10° WSW 22:56:26 74° SSE 22:59:37 10° E
Cosmos 2219 3.4 22:51:44 10° NNW 22:57:25 69° NE 23:02:17 14° SE
COSMOS 2455 2.8 22:52:50 15° SSW 22:57:52 85° SE 23:03:57 10° NE
USA 215 3.4 22:52:57 14° SE 22:58:30 56° SW 23:04:56 10° WNW
STARLINK-1216 3.5 22:54:24 10° W 22:58:34 87° S 23:02:44 10° ESE
STARLINK-1203 3.6 22:54:29 10° W 22:58:43 87° S 23:02:55 10° ESE
STARLINK-1205 3.9 22:57:10 10° W 23:01:08 44° SSW 23:03:07 25° SSE
Cosmos 2297 Rocket 2.6 22:56:03 10° NNW 23:01:42 62° NE 23:07:00 11° SE
STARLINK-1350 4.5 23:01:49 25° SE 23:01:49 25° SE 23:04:59 10° E
STARLINK-1237 3.5 22:59:23 10° W 23:03:34 85° S 23:07:43 10° ESE
Helios 1A 3.1 23:01:35 28° S 23:03:43 66° WSW 23:07:55 10° NNW
Lacrosse 4 Rocket 3.2 23:01:30 10° NNW 23:05:28 32° NE 23:09:21 10° ESE
Cosmos 1726 3.9 23:02:38 10° NW 23:05:34 22° W 23:07:20 16° SW
STARLINK-1218 4.0 23:02:11 10° W 23:06:07 42° SSW 23:07:55 26° SSE
STARLINK-1202 3.5 23:04:23 10° W 23:08:33 83° SSW 23:12:42 10° ESE
STARLINK-1368 4.3 23:08:27 28° SSE 23:08:41 28° SE 23:11:58 10° E
Cosmos 1174 3.7 23:06:37 21° SW 23:08:47 70° NW 23:12:48 10° NE
Timation 2 Rocket 4.1 23:02:45 10° NW 23:08:59 60° WSW 23:12:55 22° S
Cosmos 2058 Rocket 3.0 23:05:02 10° N 23:09:29 90° WSW 23:11:58 26° S
Cosmos 1455 4.5 23:06:51 10° NNE 23:09:33 18° ENE 23:12:13 10° ESE
COSMOS 2487 4.3 23:07:10 10° NW 23:09:35 18° W 23:10:32 16° WSW
ALOS 2 3.6 23:07:47 22° SSW 23:10:00 35° W 23:14:05 10° NNW
STARLINK-1254 4.1 23:07:10 10° W 23:11:03 40° SSW 23:12:41 27° SSE
Cosmos 1898 Rocket 4.4 23:06:58 10° NNW 23:12:08 46° NE 23:17:15 10° SE
STARLINK-1369 4.3 23:11:47 29° SSE 23:12:09 29° SE 23:15:28 10° E
CENTAUR R/B 4.3 23:07:07 10° WNW 23:13:32 26° WSW 23:18:17 16° SSW
STARLINK-1372 4.2 23:15:07 29° SSE 23:15:36 31° SSE 23:18:59 10° E
STARLINK-1231 4.1 23:12:09 10° W 23:16:00 38° SSW 23:17:27 28° SSE
Starlink 7 placeholder 3.7 23:17:57 22° ENE 23:17:57 22° ENE 23:18:49 10° E
ATLAS 3B R/B 3.4 23:11:10 10° NW 23:17:18 37° WSW 23:21:09 21° S
Meteor 2-5 Rocket 3.7 23:14:12 23° S 23:17:47 89° E 23:23:29 10° NNE
STARLINK-1246 3.5 23:14:21 10° WNW 23:18:30 78° SSW 23:22:39 10° ESE
STARLINK-1378 4.1 23:18:28 30° SSE 23:19:05 32° SSE 23:22:30 10° E
SeaSat 1 3.3 23:14:35 10° NNE 23:19:20 48° NW 23:24:04 10° WSW
Cosmos 1606 Rocket 4.3 23:15:22 10° NNW 23:19:25 39° W 23:21:36 23° SSW
STARLINK-1232 4.2 23:17:10 10° W 23:20:58 35° SSW 23:22:15 28° S
SL-14 R/B 3.3 23:19:11 29° S 23:20:59 69° E 23:24:50 10° NNE
FALCON 9 DEB 3.2 23:20:07 29° SW 23:21:32 51° SSE 23:24:54 10° E
STARLINK-1379 4.1 23:21:51 30° S 23:22:35 33° SSE 23:26:02 10° E
STARLINK-1224 3.5 23:19:19 10° WNW 23:23:28 75° SSW 23:27:36 10° ESE
STARLINK-1329 4.1 23:23:14 31° S 23:24:01 34° SSE 23:27:30 10° E
Cosmos 1943 Rocket 4.3 23:19:33 10° W 23:24:04 24° NW 23:28:38 10° NNE
Meteor 2-21 4.5 23:20:59 22° S 23:25:09 89° E 23:31:24 10° NNE
STARLINK-1208 4.3 23:22:08 10° W 23:25:54 33° SSW 23:27:00 28° S
STARLINK-29 2.8 23:24:02 18° WSW 23:26:19 71° SSE 23:29:31 10° E
SL-16 R/B 3.9 23:21:32 10° ESE 23:27:02 36° ENE 23:32:35 10° N
STARLINK-1362 4.0 23:26:40 31° S 23:27:35 36° SSE 23:31:06 10° E
ATLAS CENTAUR R/B 0.9 23:26:01 10° WNW 23:28:10 63° SSW 23:32:09 10° SE
STARLINK-1225 3.5 23:24:19 10° WNW 23:28:27 73° SSW 23:32:35 10° ESE
STARLINK-1271 4.4 23:27:11 10° W 23:30:53 32° SW 23:31:49 28° S
STARLINK-1373 4.0 23:30:05 30° S 23:31:08 37° SSE 23:34:42 10° E
NOSS 3-4 (A) 3.9 23:25:41 10° WSW 23:31:41 63° NW 23:38:13 10° NE
NOSS 3-4 (C) 3.9 23:25:46 10° WSW 23:31:46 63° NW 23:38:20 10° NE
RESURS DK-1 2.4 23:29:48 23° SW 23:32:19 80° WNW 23:36:30 10° NNE
STARLINK-1365 3.9 23:31:12 30° S 23:32:22 39° SSE 23:35:58 10° E
STARLINK-1230 3.5 23:29:17 10° WNW 23:33:25 70° SSW 23:37:33 10° ESE
STARLINK-1390 3.9 23:33:35 30° S 23:34:44 39° SSE 23:38:20 10° E
Cosmos 1812 Rocket 4.1 23:31:18 10° N 23:35:43 54° ENE 23:38:55 18° SSE
STARLINK-1154 4.5 23:32:11 10° W 23:35:49 30° SW 23:36:35 28° SSW
Cosmos 1697 Rocket 4.2 23:32:47 14° SSE 23:36:14 24° ESE 23:40:38 10° NE
Cosmos 2084 3.5 23:33:36 22° SW 23:36:24 74° SE 23:40:53 10° NE
BREEZE-M R/B 3.9 23:31:44 11° SW 23:37:27 36° SSE 23:40:50 10° E
Cosmos 1626 2.1 23:36:00 29° SSW 23:37:47 75° WNW 23:41:32 10° N
STARLINK-1243 3.5 23:34:17 10° WNW 23:38:24 67° SSW 23:42:31 10° ESE
Cosmos 990 Rocket 4.2 23:33:12 10° NNW 23:38:29 71° ENE 23:43:10 13° SE
Cosmos 2227 Rocket 2.2 23:32:54 10° NNW 23:38:38 89° WSW 23:43:30 15° SSE
Okean 1-7 Rocket 3.7 23:37:39 24° SSW 23:40:17 70° WNW 23:44:50 10° N
ATLAS CENTAUR R/B 2.3 23:36:11 10° WSW 23:40:18 45° NW 23:44:12 10° NE
Cosmos 2369 Rocket 4.2 23:35:52 10° W 23:40:30 25° NW 23:45:07 10° NNE
CZ-4 R/B 3.8 23:36:10 10° NNE 23:41:00 78° ESE 23:43:50 24° S
STARLINK-1236 3.5 23:39:15 10° WNW 23:43:22 64° SSW 23:47:28 10° ESE
Landsat 4 4.4 23:45:18 10° N 23:48:52 45° WNW 23:51:00 21° SW
Cosmos 1602 Rocket 3.9 23:47:23 22° SSE 23:49:56 54° E 23:54:11 10° NNE
SL-08 ROCKET BODY 4.4 23:46:46 21° S 23:50:49 72° E 23:56:40 10° NNE
Cosmos 2285 Rocket 4.5 23:45:55 10° NNW 23:52:17 62° ENE 23:58:33 10° SE
STARLINK-1269 3.6 23:49:13 10° WNW 23:53:18 59° SSW 23:57:23 10° SE
